Weather observations for the past three days for
Dallas/Fort Worth International Airport
Imperial (Metric)
Date Time (cdt) Wind (mph) Vis. (mi.) Weather Sky Cond. Temperature (ºF) Relative Humidity Wind Chill (°F) Heat Index (°F) Pressure Precipitation (in)
Air Dwpt 6 hour altimeter (in) sea level (mb) 1 hr 3 hr 6 hr
Max. Min.
23 18:53 S 8 10.00 A Few Clouds FEW060 FEW250 96.1 66.9 100 93 39% 100 29.87 1010.5
23 17:53 SE 7 10.00 Partly Cloudy SCT060 SCT250 96.1 66.9 39% 100 29.88 1010.7
23 16:53 SE 8 G 16 10.00 A Few Clouds FEW060 FEW250 96.1 69.1 41% 102 29.89 1011.1
23 15:53 S 5 10.00 Partly Cloudy SCT060 SCT100 SCT250 96.1 68 40% 101 29.91 1011.6
23 14:53 SW 8 10.00 A Few Clouds FEW060 FEW100 95 69.1 43% 101 29.93 1012.4
23 13:53 Vrbl 5 10.00 A Few Clouds FEW050 FEW100 93.9 68 43% 98 29.95 1013.1
23 12:53 SW 13 G 17 10.00 A Few Clouds FEW050 FEW100 93.9 70 93.9 79 46% 100 29.96 1013.6
23 11:53 SW 12 10.00 A Few Clouds FEW045 FEW100 91.9 70 49% 98 29.98 1014.2
23 10:53 SW 13 10.00 A Few Clouds FEW100 89.1 71.1 55% 95 29.98 1014.3
23 09:53 SW 10 10.00 A Few Clouds FEW100 88 71.1 57% 94 29.99 1014.5
23 08:53 SW 12 10.00 A Few Clouds FEW100 84.9 71.1 63% 90 29.99 1014.3
23 07:53 SW 10 10.00 A Few Clouds FEW110 FEW250 81 71.1 72% 85 29.98 1014.1
23 06:53 SW 8 10.00 A Few Clouds FEW250 79 71.1 82.9 79 77% 82 29.96 1013.6
23 05:53 SW 8 10.00 Fair CLR 79 70 74% 82 29.95 1012.9
23 04:53 SW 8 10.00 Fair CLR 80.1 70 71% 83 29.94 1012.7
23 03:53 SW 6 10.00 Fair CLR 81 70 69% 84 29.94 1012.6
23 02:53 S 8 10.00 Fair CLR 82 69.1 65% 85 29.94 1012.8
23 01:53 S 9 10.00 Fair CLR 82.9 68 61% 86 29.96 1013.3
23 00:53 S 9 10.00 Fair CLR 82.9 69.1 93.9 82.9 63% 87 29.97 1013.6
22 23:53 S 9 10.00 A Few Clouds FEW250 84.9 68 57% 88 29.98 1014.0
22 22:53 S 8 10.00 Fair CLR 86 68 55% 89 29.97 1013.8
22 21:53 S 10 10.00 Fair CLR 88 68 52% 92 29.95 1013.1
22 20:53 S 8 10.00 A Few Clouds FEW065 90 66.9 47% 93 29.94 1012.7
22 19:53 SW 12 10.00 A Few Clouds FEW065 91.9 66 43% 95 29.94 1012.6
22 18:53 SW 12 10.00 A Few Clouds FEW065 93.9 66 95 90 40% 97 29.94 1012.8
22 17:53 SW 12 G 17 10.00 A Few Clouds FEW060 93.9 66 40% 97 29.95 1013.0
22 16:53 S 9 10.00 A Few Clouds FEW060 93.9 66.9 41% 98 29.96 1013.4
22 15:53 SW 14 G 24 10.00 A Few Clouds FEW060 93.9 68 43% 98 29.97 1013.8
22 14:53 S 14 G 18 10.00 A Few Clouds FEW060 95 69.1 43% 101 29.99 1014.4
22 13:53 SW 16 G 21 10.00 Partly Cloudy SCT050 SCT210 91 69.1 49% 96 30.01 1015.4
22 12:53 S 10 G 21 10.00 Partly Cloudy SCT046 91 71.1 91 78.1 52% 98 30.04 1016.2
22 11:53 S 7 G 16 10.00 Partly Cloudy SCT040 90 72 56% 97 30.05 1016.5
22 10:53 SW 12 10.00 Partly Cloudy SCT032 88 71.1 57% 94 30.07 1017.0
22 09:53 S 9 10.00 A Few Clouds FEW025 84.9 72 65% 91 30.07 1017.4
22 08:53 SW 12 10.00 A Few Clouds FEW250 82.9 73 72% 89 30.08 1017.5
22 07:53 SW 13 10.00 Fair CLR 81 72 74% 85 30.07 1017.2
22 06:53 S 7 10.00 A Few Clouds FEW250 78.1 71.1 81 77 79% 80 30.06 1017.1
22 05:53 S 7 10.00 A Few Clouds FEW250 78.1 70 76% 80 30.05 1016.8
22 04:53 S 8 10.00 A Few Clouds FEW250 79 69.1 72% 82 30.05 1016.6
22 03:53 S 7 10.00 A Few Clouds FEW250 79 69.1 72% 82 30.05 1016.6
22 02:53 S 6 10.00 Fair CLR 79 69.1 72% 82 30.06 1016.8
22 01:53 S 6 10.00 Fair CLR 80.1 69.1 69% 83 30.06 1016.9
22 00:53 S 7 10.00 A Few Clouds FEW250 81 69.1 91 81 67% 84 30.07 1017.1
21 23:53 SE 6 10.00 A Few Clouds FEW250 82.9 68 61% 86 30.07 1017.4
21 22:53 SE 9 10.00 Partly Cloudy SCT250 84.9 68 57% 88 30.06 1017.0
21 21:53 SE 9 10.00 Partly Cloudy FEW070 SCT250 86 66 51% 88 30.04 1016.3
21 20:53 SE 10 10.00 Partly Cloudy FEW070 SCT250 88 64.9 46% 90 30.03 1015.9
21 19:53 S 10 10.00 Partly Cloudy FEW060 SCT250 89.1 64 43% 90 30.04 1016.1
21 18:53 S 10 G 18 10.00 Partly Cloudy FEW060 SCT250 91 64 93 89.1 41% 93 30.04 1016.2
21 17:53 SE 8 10.00 Partly Cloudy FEW060 FEW090 SCT250 91.9 64.9 41% 94 30.05 1016.5
21 16:53 E 10 10.00 Mostly Cloudy SCT060 SCT090 BKN250 91.9 66.9 44% 95 30.07 1017.2
21 15:53 S 12 10.00 Mostly Cloudy SCT050 BKN090 BKN250 91.9 68 46% 96 30.09 1017.9
21 14:53 Vrbl 6 10.00 Partly Cloudy SCT050 SCT250 90 68 48% 94 30.1 1018.4
21 13:53 SE 9 10.00 Partly Cloudy SCT047 SCT250 90 70 52% 95 30.12 1019.1
21 12:53 SE 10 10.00 Partly Cloudy SCT043 SCT250 90 69.1 90 77 50% 95 30.14 1019.8
21 11:53 SE 8 10.00 Partly Cloudy SCT036 SCT250 89.1 70 53% 94 30.16 1020.4
21 10:53 SE 7 10.00 Partly Cloudy SCT035 SCT250 86 70 59% 91 30.17 1020.6
21 09:53 Vrbl 3 10.00 Partly Cloudy FEW030 SCT250 84 71.1 65% 89 30.17 1020.7
21 08:53 S 7 10.00 Partly Cloudy SCT250 81 72 74% 85 30.17 1020.7
21 07:53 SE 5 10.00 Mostly Cloudy BKN250 79 72 79% 82 30.16 1020.2
21 06:53 SE 6 10.00 Partly Cloudy FEW050 SCT250 77 72 82 75.9 85% 78 30.14 1019.7
21 05:53 SE 7 10.00 Mostly Cloudy FEW050 BKN250 77 71.1 82% 79 30.13 1019.3
21 04:53 SE 6 10.00 Mostly Cloudy FEW050 BKN250 78.1 71.1 79% 80 30.13 1019.2
21 03:53 SE 10 10.00 Mostly Cloudy FEW050 BKN250 80.1 71.1 74% 84 30.12 1019.0
21 02:53 SE 10 10.00 Mostly Cloudy FEW044 SCT060 BKN250 82 71.1 69% 86 30.12 1019.1
21 01:53 SE 6 10.00 Mostly Cloudy FEW050 BKN250 80.1 71.1 74% 84 30.13 1019.5
21 00:53 SE 7 10.00 A Few Clouds FEW150 FEW250 81 71.1 91 81 72% 85 30.13 1019.4
20 23:53 SE 6 10.00 A Few Clouds FEW050 FEW250 82 71.1 69% 86 30.13 1019.5
20 22:53 SE 8 10.00 Partly Cloudy SCT250 84 70 63% 88 30.12 1019.1
20 21:53 E 10 10.00 Mostly Cloudy FEW160 BKN250 84.9 70 61% 89 30.1 1018.4
20 20:53 SE 8 10.00 Mostly Cloudy FEW055 FEW160 BKN250 84.9 69.1 59% 89 30.09 1017.8
20 19:53 SE 12 10.00 Mostly Cloudy FEW055 FEW200 BKN250 88 68 52% 92 30.08 1017.6
Date Time (cdt) Wind (mph) Vis. (mi.) Weather Sky Cond. Air Dwpt Max. Min. Relative Humidity Wind Chill (°F) Heat Index (°F) altimeter (in) sea level (mb) 1 hr 3 hr 6 hr
6 hour
Temperature (ºF) Pressure Precipitation (in)